Location: Sabana Grande
(18.0777°N, 66.9605°W)
Time: 02:37:43
(UTC-04:00)

ACS3 Solar Sail - Pass Details

Date: 20 September 2024
Orbit: 960 x 1033 km, 97.5° (Epoch: 12 October)

Event Time Altitude Azimuth Distance (km) Brightness Sun altitude
Exits shadow 20:25:04 21° 21° (NNE) 2,121 3.4 -29.1°
Drops below altitude 10° 20:27:16 10° 9° (N) 2,826 4.2 -29.7°
Enters shadow 21:45:31 -29° 180° (S) 7,818 6.6 -47.5°
